Location: Haliburton Scout Reserve
(45.0900°N, 78.3200°W)
Time: 18:00:11
(UTC-04:00)

Courier 1B Rocket - Pass Details

Date: 07 February 2023
Orbit: 920 x 1202 km, 28.2° (Epoch: 22 March)

Event Time Altitude Azimuth Distance (km) Brightness Sun altitude
Rises 17:29:16 0° 242° (WSW) 3,605 10.7 -0.8°
Reaches altitude 10° 17:33:00 10° 221° (SW) 2,627 8.5 -1.4°
Maximum altitude 17:36:35 16° 186° (S) 2,216 7.3 -2.0°
Drops below altitude 10° 17:40:09 10° 150° (SSE) 2,601 7.1 -2.6°
Sets 17:43:50 0° 129° (SE) 3,550 7.6 -3.2°
